Regional Weather Roundup
Issued by NWS

Home | Current Version | Previous Version | Graphics & Text | Print | Product List | Glossary On
Versions: 1 2 3 4 5 6 7 8 9 10 11 12 13 14 15 16 17 18 19 20 21 22 23 24 25 26 27 28 29 30 31 32 33 34 35 36 37 38 39 40 41 42 43 44 45 46 47 48 49 50
000
ASUS43 KLOT 191000
RWRIL

ILLINOIS REGIONAL WEATHER ROUNDUP
NATIONAL WEATHER SERVICE CHICAGO/ROMEOVILLE IL
500 AM CDT FRI SEP 19 2014

NOTE: "FAIR" INDICATES FEW OR NO CLOUDS BELOW 12,000 FEET WITH NO
SIGNIFICANT WEATHER AND/OR OBSTRUCTIONS TO VISIBILITY.

* THESE STATIONS ARE NOT UNDER NWS QUALITY CONTROL. THEY ALSO MAY NOT
  REPORT WEATHER SUCH AS PRECIPITATION OR FOG.

ILZ001-002-007-009-015-016-024-191100-
NORTHWEST ILLINOIS

CITY           SKY/WX    TMP DP  RH WIND       PRES   REMARKS
MOLINE         CLEAR     48  47  96 E5        30.10S FOG
STERLING*      CLOUDY    46  45  93 E3        30.12S VSB<1/4
$$

ILZ003-004-008-010-011-017-018-191100-
NORTH CENTRAL ILLINOIS

CITY           SKY/WX    TMP DP  RH WIND       PRES   REMARKS
ROCKFORD       CLOUDY    56  55  97 SE6       30.15F FOG
FREEPORT*      FOG       52  51  96 E6        30.15S VSB 1/2
ROCHELLE*      FOG       50  49  97 SE3       30.14S VSB 1/4
$$

ILZ005-006-012>014-019>023-191100-
NORTHEAST ILLINOIS

CITY           SKY/WX    TMP DP  RH WIND       PRES   REMARKS
CHICAGO-OHARE  CLEAR     54  51  90 S7        30.13F
CHICAGO-MIDWAY CLEAR     59  51  75 SE8       30.14S
AURORA         CLEAR     49  46  90 CALM      30.14F FOG
LANSING*       CLEAR     54  50  88 SE7       30.16R
WAUKEGAN       CLEAR     58  54  86 SE7       30.14R
DUPAGE AIRPORT CLEAR     53  50  89 SE6       30.13S
WHEELING       CLEAR     52  49  89 CALM      30.16R
NORTHERLY ISL    N/A     58  51  78 SE7         N/A
$$

LMZ740>746-191100-
SOUTHERN LAKE MICHIGAN

STATION/POSITION SKY/WX   TEMP    WIND        PRES    VSBY  WAVE
                          AIR SEA DIR/SP/G                  HT/PER
                          (F)     (DEG/KT/KT) (MB)    (MI)  (FT/S)
SOUTHERN BUOY              61 62  150/ 16/ 19 1020.8F         3/ 4
WAUKEGAN HARBOR            61     170/ 14/ 16   N/A
HARRISON CRIB              61     150/ 17/ 22   N/A
BURNHAM HARBOR             59     140/  6/ 13   N/A
CALUMET HARBOR             59     140/ 10/ 14 1019.7R
MICHIGAN CITY              57     110/ 10/ 14   N/A
MICHIGAN CITY 6N           58 65  140/ 16/ 19   N/A           2/ 2
ST. JOSEPH                 57 66  120/ 16/ 19   N/A           2/ 2
$$

ILZ025>027-034>036-040-047-049-050-058-095>099-191100-
WEST-CENTRAL ILLINOIS

CITY           SKY/WX    TMP DP  RH WIND       PRES   REMARKS
QUINCY         CLEAR     54  49  83 SE6       30.08R
GALESBURG*     CLEAR     51  49  92 E5        30.11R FOG
MACOMB*        CLEAR     44  44  98 CALM      30.12S FOG
$$

ILZ028>032-037-038-041>044-048-051>054-059>061-191100-
CENTRAL ILLINOIS

CITY           SKY/WX    TMP DP  RH WIND       PRES   REMARKS
DECATUR        CLEAR     48  46  93 CALM      30.12R
PEORIA         CLEAR     53  49  86 NE3       30.12R
SPRINGFIELD    CLEAR     51  47  86 NE3       30.11R
TAYLORVILLE    NOT AVBL
$$

ILZ033-039-045-046-055>057-062-063-191100-
EAST-CENTRAL ILLINOIS

CITY           SKY/WX    TMP DP  RH WIND       PRES   REMARKS
CHAMPAIGN      CLEAR     49  46  90 E7        30.12S
MATTOON          N/A     51  48  89 SE5       30.10S
$$

ILZ079-100>102-191100-
SOUTHWEST ILLINOIS

CITY           SKY/WX    TMP DP  RH WIND       PRES   REMARKS
BELLEVILLE     CLEAR     52  52 100 W2        30.07S FOG
CAHOKIA*       CLEAR     52  50  93 CALM      30.07F FOG
SPARTA*        CLEAR     50  49  97 CALM      30.07F
$$

ILZ064>066-069>071-074>076-080>082-084>086-088>090-092>094-191100-
SOUTH-CENTRAL ILLINOIS

CITY           SKY/WX    TMP DP  RH WIND       PRES   REMARKS
CARBONDALE     CLEAR     50  48  93 CALM      30.07S FOG
MARION         CLEAR     52  52 100 N5        30.07S FOG
MT. VERNON     CLEAR     54  46  76 NE3       30.09S
$$

ILZ067-068-072-073-078-083-087-091-191100-
SOUTHEAST ILLINOIS

CITY           SKY/WX    TMP DP  RH WIND       PRES   REMARKS
LAWRENCEVILLE  CLEAR     51  49  92 NE5       30.11S
ROBINSON*      FOG       46  46 100 CALM      30.12F VSB 1/2
$$

ABBREVIATIONS USED IN REMARKS
   TC - TEMPERATURE IN CELSIUS
  WCI - WIND CHILL INDEX
   HX - HEAT INDEX
  VSB - VISIBILITY
$$



USA.gov is the U.S. government's official web portal to all federal, state and local government web resources and services.